This demonstration page uses our WeatherBlox Daily Observations layout. Learn more.

Left ArrowRight Arrow

39.92423, -83.80882

Hourly Observations for July 15, 2021

Temp ( °F °C ) Dew Point ( °F °C ) Humidity (%) Winds ( mph kmh ) Pressure ( in mb ) Visibility ( mi km ) Precip ( " mm )
12:56 am 00:56 Clear 71 21.7 71 21.7 100 100 S 5 7 30.15 1021 10 16 N/A
1:56 am 01:56 Clear 70 21 N/A N/A S 5 7 30.14 1021 10 16 N/A
2:56 am 02:56 Clear 70 21 N/A N/A S 6 9 30.12 1020 10 16 N/A
3:56 am 03:56 Mostly Clear 70 21 N/A N/A N N/A 30.12 1020 10 16 N/A
4:56 am 04:56 Mostly Clear 70 21 N/A N/A S 3 6 30.12 1020 9 14 N/A
5:56 am 05:56 Clear 70 21 N/A N/A SSW 3 6 30.11 1020 9 14 N/A
6:56 am 06:56 Sunny 70 21 N/A N/A SSW 5 7 30.11 1020 9 14 N/A
7:56 am 07:56 Sunny 72 22 N/A N/A SSW 7 11 30.11 1020 10 16 N/A
8:56 am 08:56 Sunny 72 22 N/A N/A SW 9 15 30.11 1020 10 16 N/A
9:56 am 09:56 Sunny 76 24.4 76 24.4 100 100 SW 8 13 30.11 1020 10 16 N/A
10:56 am 10:56 Sunny 79 26.1 75 23.9 88 88 SSW 8 13 30.10 1019 10 16 N/A
11:56 am 11:56 Mostly Sunny 81 27.2 75 23.9 82 82 SW 10 17 30.09 1019 10 16 N/A
12:56 pm 12:56 Partly Cloudy 83 28.3 75 23.9 77 77 SW 14 22 30.08 1019 10 16 N/A
1:56 pm 13:56 Mostly Sunny 84 28.9 75 23.9 74 74 WSW 15 24 30.07 1018 10 16 N/A
2:56 pm 14:56 Mostly Cloudy 84 28.9 75 23.9 74 74 WSW 8 13 30.05 1018 10 16 N/A
3:56 pm 15:56 Mostly Sunny 86 30 74 23.3 67 67 SW 12 19 30.02 1017 10 16 N/A
4:56 pm 16:56 Partly Cloudy 85 29.4 75 23.9 72 72 SSW 8 13 30.01 1016 10 16 N/A
5:56 pm 17:56 Mostly Sunny 84 28.9 70 21.1 63 63 WSW 13 20 30.01 1016 10 16 N/A
6:56 pm 18:56 Sunny 84 28.9 70 21.1 63 63 SW 7 11 30.00 1016 10 16 N/A
7:56 pm 19:56 Sunny 82 27.8 69 20.6 65 65 WSW 8 13 30.00 1016 10 16 N/A
8:56 pm 20:56 Sunny 77 25 71 21.7 82 82 SW 3 6 30.01 1016 10 16 N/A
9:56 pm 21:56 Clear 74 23.3 74 23.3 100 100 SSE 5 7 30.01 1016 10 16 N/A
10:40 pm 22:40 Cloudy with Thunderstorms 72 22 72 22 100 100 S 6 9 30.02 1017 9 14 0.00 0.00
10:56 pm 22:56 Cloudy with Thunderstorms 72 22 N/A N/A N N/A 30.04 1017 10 16 0.00 0.00
11:16 pm 23:16 Cloudy N/A N/A N/A S 6 9 N/A 10 16 N/A
11:56 pm 23:56 Mostly Cloudy 70 21 N/A N/A SSE 5 7 30.05 1018 10 16 N/A

Powered by AerisWeather